Regional Weather Roundup
Issued by NWS

Home | Current Version | Previous Version | Text Only | Print | Product List | Glossary Off
Versions: 1 2 3 4 5 6 7 8 9 10 11 12 13 14 15 16 17 18 19 20 21 22 23 24 25 26 27 28 29 30 31 32 33 34 35 36 37 38 39 40 41 42 43 44 45 46 47 48 49 50

000
ASUS43 KMKX 161411
RWRWI

WISCONSIN REGIONAL WEATHER ROUNDUP
NATIONAL WEATHER SERVICE MILWAUKEE/SULLIVAN WI
900 AM CDT WED AUG 16 2017

NOTE: "FAIR" INDICATES FEW OR NO CLOUDS BELOW 12,000 FEET WITH NO
SIGNIFICANT WEATHER AND/OR OBSTRUCTIONS TO VISIBILITY.

WIZ001-002-006>008-014>016-023>028-161500-
NORTHWEST WISCONSIN

CITY           SKY/WX    TMP DP  RH WIND       PRES   REMARKS
SUPERIOR ARPT    N/A     64  60  88 NE10G16   29.99S
ASHLAND        MOSUNNY   60  57  89 SE3       30.01F
HAYWARD        CLOUDY    65  58  78 SE5       30.00F
SIREN          CLOUDY    63  59  85 SE6       29.96F
CUMBERLAND     CLOUDY    63  59  88 SE7       29.98F
RICE LAKE      CLOUDY    66  61  84 SE13      29.99F
CHETEK         CLOUDY    67  62  85 SE9       29.99S
LADYSMITH      MOSUNNY   65  60  82 E10       30.02S
EAU CLAIRE     PTSUNNY   65  60  84 E7        29.96F
MENOMONIE      RAIN      63  63 100 E5        29.98R
NEW RICHMOND   LGT RAIN  64  63  95 SE8       29.95F
OSCEOLA        CLOUDY    65  65 100 SE9       29.97S
$$

WIZ003>005-009-010-017-018-161500-
NORTH CENTRAL WISCONSIN

CITY           SKY/WX    TMP DP  RH WIND       PRES   REMARKS
MANITOWISH WTR CLOUDY    61  61 100 SE5       30.05F
ARBOR VITAE    PTSUNNY   62  58  87 SE7       30.06S
WOODRUFF       PTSUNNY   62  58  87 SE7       30.06S
RHINELANDER    CLOUDY    62  60  93 SE7       30.07S
EAGLE RIVER    CLOUDY    60  58  93 SE3       30.07F
LAND O LAKES   CLOUDY    59  56  88 S6        30.09F
PHILLIPS       CLOUDY    63  59  88 SE5       30.03S
TOMAHAWK         N/A     60  59  97 E7        30.06S
MEDFORD        CLOUDY    62  59  90 SE7       30.03S
MERRILL        CLOUDY    63  63 100 SE6       30.05F
$$

WIZ029-030-035-036-043>047-161500-
CENTRAL WISCONSIN

CITY           SKY/WX    TMP DP  RH WIND       PRES   REMARKS
WAUSAU         CLOUDY    62  60  93 E8        30.03S
MOSINEE        CLOUDY    63  63 100 E6        30.05F
MARSHFIELD     CLOUDY    64  59  83 SE15G21   30.00F
STEVENS POINT  CLOUDY    63  62  96 E10       30.03F
WAUPACA        CLOUDY    67  65  93 NE6       30.04F FOG
WAUTOMA        PTSUNNY   66  61  84 E7        30.02
WISC RAPIDS    MOSUNNY   67  61  81 SE10      30.03F
CAMP DOUGLAS   PTSUNNY   68  61  77 E10       29.99F
$$

WIZ011>013-019>022-031-037>040-048>050-161500-
NORTHEAST WISCONSIN

CITY           SKY/WX    TMP DP  RH WIND       PRES   REMARKS
ANTIGO         CLOUDY    61  59  94 SE9       30.07F
SHAWANO        CLOUDY    63  60  88 E9        30.06F
OCONTO         CLOUDY    67  61  80 E7        30.06S
STURGEON BAY   CLOUDY    66  63  90 VRB5      30.07S
GREEN BAY      CLOUDY    67  65  93 NE10      30.05F
MANITOWOC      MOSUNNY   68  63  84 NE7       30.05F
APPLETON       PTSUNNY   66  59  77 E8        30.03F
CLINTONVILLE   CLOUDY    63  61  94 E5        30.05F
OSHKOSH        PTSUNNY   68  61  78 E9        30.03F
$$

WIZ032>034-041-042-053>061-161500-
SOUTHWEST WISCONSIN

CITY           SKY/WX    TMP DP  RH WIND       PRES   REMARKS
LA CROSSE      PTSUNNY   71  59  65 SE9       29.96S
SPARTA         MOSUNNY   69  58  68 SE7       29.98F
VIROQUA        SUNNY     67  59  74 E10G17    29.98S
BOSCOBEL       MOSUNNY   72  58  61 E5        29.98S
PRAIRIE DU CHI SUNNY     69  59  72 E5        29.96S
PLATTEVILLE    SUNNY     68  65  92 E13       29.98S
$$

WIZ056-057-062-063-064-067-068-161500-
SOUTH CENTRAL WISCONSIN

CITY           SKY/WX    TMP DP  RH WIND       PRES   REMARKS
REEDSBURG      PTSUNNY   70  60  72 SE6       29.99F
BARABOO/DELLS  MOSUNNY   68  58  71 E7        30.00F
LONE ROCK      SUNNY     69  62  78 E12       29.99S
MINERAL POINT  MOSUNNY   70  63  78 E7        29.99F
MADISON        PTSUNNY   68  61  78 SE7       30.01S
MIDDLETON      MOSUNNY   71  60  67 E9        30.01F
WATERTOWN      SUNNY     68  64  87 E10       30.01F
MONROE         CLOUDY    68  61  77 E5        30.00S
JANESVILLE     MOSUNNY   72  63  73 E8        30.00F
$$

WIZ051-052-058>065-066-070>072-161500-
SOUTHEAST WISCONSIN

CITY           SKY/WX    TMP DP  RH WIND       PRES   REMARKS
MILWAUKEE      MOSUNNY   73  65  75 E8        30.02F
WAUKESHA       SUNNY     68  63  83 E5        30.04F
MILWAUKEE/TIMM NOT AVBL
RACINE         SUNNY     73  66  78 E7        30.04S
KENOSHA        SUNNY     72  66  81 E9        30.02F
FOND DU LAC    MOSUNNY   69  59  70 E9        30.03F
SHEBOYGAN      CLOUDY    68  65  90 NE9       30.04F
WEST BEND      CLOUDY    68  63  83 E6        30.04S
JUNEAU         SUNNY     67  62  83 E8        30.03F
$$

LSZ147-162-161500-
LAKE SUPERIOR

STATION/POSITION TIME  TEMP    WIND        PRES    WAVE
                       AIR SEA DIR/SP/G            HT/PER
                 (UTC) (F)     (DEG/KT/KT) (MB)    (FT/S)
W MID LAKE BUOY  1350   60 60  120/ 10/ 10 1016.8F   1/ 3
DEVILS ISLAND    1400   61      80/ 14/ 15 1016.1F
SAXON HARBOR     1330   61        CALM     1016.3F
$$

LMZ867-665-643>646-161500-
LAKE MICHIGAN

STATION/POSITION TIME  TEMP    WIND        PRES    WAVE
                       AIR SEA DIR/SP/G            HT/PER
                 (UTC) (F)     (DEG/KT/KT) (MB)    (FT/S)
S GREEN BAY BUOY 1400   66 71   50/  8/ 12 1017.6
N MID LAKE BUOY  1350   65 67   60/  6/  8 1018.7S   1
NORTHPORT PIER   1340   65      20/  4/  8 1018.3S
KEWAUNEE LAKESHO 1348   67      30/  3/  7 1016.8F
SHEBOYGAN LAKESH 1400   67      30/  8/  9 1016.9F
PORT WASHINGTON  1340   71      40/  6/  7 1017.9S
ATWATER BUOY     1309   70 71   50/  6/  8 1017.0S
MILWAUKEE LAKESH 1350   70      70/  6/  7   N/A
S MID LAKE BUOY  1350   70 71   70/  4/  6 1016.7F   1/ 4
KENOSHA   LAKESH 1400   70      70/  7/  8 1016.3
$$

TC  - TEMPERATURE IN CELSIUS
VSB - VISIBILITY IN STATUTE MILES
WCI - WIND CHILL INDEX
HX  - HEAT INDEX





USA.gov is the U.S. government's official web portal to all federal, state and local government web resources and services.